CWI845 NZCH-YMML

Flight info

Callsign CWI845
Flight time 3h 1m
Altitude 38000
Route KABIN L508 OMKIN P766 MIKEG N759 ANGEX DCT RAZZI
Aircraft A359/H-SDE2E3GHIJ3J4J5LM1ORWXY/LB1D1

Departure

Time 2026-05-04 15:52
Airport Christchurch International Airport (NZCH)

Arrival

Time 2026-05-04 18:54
Airport Melbourne Airport (YMML)
Time Latitude Longitude Altitude Speed Heading
2026-05-04 15:46 -43.48782 172.53770 94 ft 0 kts 118°
2026-05-04 15:47 -43.48777 172.53757 116 ft 2 kts 118°
2026-05-04 15:47 -43.48766 172.53728 116 ft 8 kts 118°
2026-05-04 15:48 -43.48748 172.53723 116 ft 0 kts 231°
2026-05-04 15:49 -43.48767 172.53690 117 ft 22 kts 230°
2026-05-04 15:49 -43.48923 172.53512 117 ft 30 kts 218°
2026-05-04 15:49 -43.49088 172.53331 112 ft 31 kts 220°
2026-05-04 15:50 -43.49253 172.53145 114 ft 30 kts 219°
2026-05-04 15:50 -43.49407 172.52969 121 ft 28 kts 220°
2026-05-04 15:50 -43.49502 172.52812 123 ft 15 kts 266°
2026-05-04 15:50 -43.49502 172.52659 121 ft 18 kts 279°
2026-05-04 15:51 -43.49437 172.52591 120 ft 6 kts 14°
2026-05-04 15:51 -43.49239 172.52799 117 ft 81 kts 41°
2026-05-04 15:51 -43.48578 172.53572 120 ft 165 kts 40°
2026-05-04 15:51 -43.47513 172.54740 340 ft 220 kts 34°
2026-05-04 15:52 -43.46097 172.56096 712 ft 270 kts 32°
2026-05-04 15:52 -43.44546 172.57494 1698 ft 257 kts 33°
2026-05-04 15:52 -43.43077 172.58797 2451 ft 250 kts 32°
2026-05-04 15:52 -43.41595 172.60100 2998 ft 255 kts 31°
2026-05-04 15:53 -43.40019 172.61250 3613 ft 257 kts 19°
2026-05-04 15:53 -43.38265 172.61700 4184 ft 260 kts 358°
2026-05-04 15:53 -43.36523 172.61083 4730 ft 261 kts 329°
2026-05-04 15:53 -43.35252 172.59391 5270 ft 262 kts 299°
2026-05-04 15:54 -43.34313 172.57218 5791 ft 265 kts 306°
2026-05-04 15:54 -43.33252 172.55132 6385 ft 267 kts 303°
2026-05-04 15:54 -43.32268 172.52962 6966 ft 270 kts 299°
2026-05-04 15:54 -43.31388 172.50671 7495 ft 271 kts 294°
2026-05-04 15:55 -43.30662 172.48318 8304 ft 262 kts 289°
2026-05-04 15:55 -43.30100 172.45973 9194 ft 262 kts 284°
2026-05-04 15:55 -43.29681 172.43487 10106 ft 271 kts 282°
2026-05-04 15:55 -43.29086 172.40948 10746 ft 291 kts 290°
2026-05-04 15:56 -43.28280 172.38287 11152 ft 313 kts 290°
2026-05-04 15:56 -43.27583 172.35349 11557 ft 334 kts 282°
2026-05-04 15:56 -43.27239 172.32120 12102 ft 349 kts 273°
2026-05-04 15:56 -43.27147 172.28755 12929 ft 356 kts 270°
2026-05-04 15:57 -43.27131 172.25332 13821 ft 361 kts 270°
2026-05-04 15:57 -43.27132 172.21903 14670 ft 367 kts 270°
2026-05-04 15:57 -43.27123 172.18370 15416 ft 374 kts 270°
2026-05-04 15:57 -43.27094 172.14773 16158 ft 380 kts 271°
2026-05-04 15:58 -43.27047 172.11112 16922 ft 387 kts 271°
2026-05-04 15:58 -43.26985 172.07396 17652 ft 393 kts 271°
2026-05-04 15:58 -43.26905 172.03613 18352 ft 399 kts 272°
2026-05-04 15:58 -43.26771 171.99780 19013 ft 404 kts 273°
2026-05-04 15:59 -43.26575 171.95916 19658 ft 408 kts 274°
2026-05-04 15:59 -43.26346 171.92014 20337 ft 412 kts 274°
2026-05-04 15:59 -43.26108 171.88082 20974 ft 415 kts 274°
2026-05-04 15:59 -43.25870 171.84120 21615 ft 418 kts 274°
2026-05-04 16:00 -43.25633 171.80120 22218 ft 423 kts 274°
2026-05-04 16:00 -43.25397 171.76080 22786 ft 427 kts 274°
2026-05-04 16:00 -43.25163 171.72008 23406 ft 431 kts 274°
2026-05-04 16:00 -43.24927 171.67896 23959 ft 434 kts 274°
2026-05-04 16:01 -43.24690 171.63754 24471 ft 436 kts 274°
2026-05-04 16:01 -43.24450 171.59586 24939 ft 440 kts 274°
2026-05-04 16:01 -43.24207 171.55401 25453 ft 442 kts 274°
2026-05-04 16:01 -43.23959 171.51180 25919 ft 445 kts 274°
2026-05-04 16:02 -43.23709 171.46934 26374 ft 448 kts 274°
2026-05-04 16:02 -43.23456 171.42663 26782 ft 452 kts 274°
2026-05-04 16:02 -43.22938 171.34030 27773 ft 456 kts 274°
2026-05-04 16:03 -43.22675 171.29680 28244 ft 458 kts 274°
2026-05-04 16:03 -43.22410 171.25322 28768 ft 459 kts 274°
2026-05-04 16:03 -43.22143 171.20950 29215 ft 462 kts 274°
2026-05-04 16:03 -43.21872 171.16548 29630 ft 465 kts 274°
2026-05-04 16:04 -43.21596 171.12103 29910 ft 470 kts 274°
2026-05-04 16:04 -43.21034 171.03147 30716 ft 473 kts 274°
2026-05-04 16:04 -43.20750 170.98664 31150 ft 472 kts 274°
2026-05-04 16:05 -43.20462 170.94155 31331 ft 477 kts 274°
2026-05-04 16:05 -43.20174 170.89669 31646 ft 479 kts 274°
2026-05-04 16:05 -43.19581 170.80486 32162 ft 484 kts 274°
2026-05-04 16:06 -43.19283 170.75910 32672 ft 480 kts 274°
2026-05-04 16:06 -43.18488 170.63859 33871 ft 474 kts 274°
2026-05-04 16:07 -43.18087 170.57856 34412 ft 472 kts 274°
2026-05-04 16:07 -43.17182 170.44471 35402 ft 468 kts 274°
2026-05-04 16:08 -43.16879 170.40032 35674 ft 468 kts 274°
2026-05-04 16:08 -43.15959 170.26747 36445 ft 466 kts 274°
2026-05-04 16:09 -43.15338 170.17895 36528 ft 474 kts 274°
2026-05-04 16:10 -43.14038 169.99690 36529 ft 484 kts 275°
2026-05-04 16:11 -43.12694 169.81301 36529 ft 486 kts 275°
2026-05-04 16:12 -43.10621 169.53706 36535 ft 486 kts 275°
2026-05-04 16:13 -43.09201 169.35305 36536 ft 486 kts 275°
2026-05-04 16:14 -43.07758 169.16983 36532 ft 486 kts 275°
2026-05-04 16:16 -43.05906 168.94013 36533 ft 486 kts 275°
2026-05-04 16:17 -43.04007 168.71049 36536 ft 486 kts 275°
2026-05-04 16:18 -43.02454 168.52677 36533 ft 486 kts 275°
2026-05-04 16:19 -43.00606 168.31267 36530 ft 486 kts 275°
2026-05-04 16:20 -42.98583 168.08349 36528 ft 486 kts 275°
2026-05-04 16:22 -42.96518 167.85492 36523 ft 486 kts 276°
2026-05-04 16:23 -42.93980 167.58073 36516 ft 485 kts 276°
2026-05-04 16:25 -42.91374 167.30656 36515 ft 486 kts 276°
2026-05-04 16:26 -42.88249 166.98682 36501 ft 486 kts 276°
2026-05-04 16:28 -42.85968 166.75920 36505 ft 486 kts 277°
2026-05-04 16:29 -42.82697 166.44061 36493 ft 484 kts 277°
2026-05-04 16:31 -42.80315 166.21397 36481 ft 484 kts 277°
2026-05-04 16:32 -42.77391 165.94177 36480 ft 484 kts 278°
2026-05-04 16:33 -42.75405 165.76029 36476 ft 484 kts 278°
2026-05-04 16:34 -42.73897 165.62426 36464 ft 485 kts 278°
2026-05-04 16:35 -42.70836 165.35283 36457 ft 484 kts 278°
2026-05-04 16:36 -42.69285 165.21747 36451 ft 485 kts 278°
2026-05-04 16:37 -42.67713 165.08180 36459 ft 484 kts 278°
2026-05-04 16:38 -42.65590 164.90077 36464 ft 486 kts 278°
2026-05-04 16:39 -42.62888 164.67405 36440 ft 486 kts 278°
2026-05-04 16:40 -42.60705 164.49369 36442 ft 486 kts 278°
2026-05-04 16:41 -42.57925 164.26749 36431 ft 486 kts 279°
2026-05-04 16:43 -42.55100 164.04140 36419 ft 485 kts 279°
2026-05-04 16:43 -42.53386 163.90603 36413 ft 486 kts 279°
2026-05-04 16:45 -42.49900 163.63478 36403 ft 487 kts 279°
2026-05-04 16:46 -42.46962 163.41013 36394 ft 486 kts 279°
2026-05-04 16:47 -42.44574 163.23010 36400 ft 486 kts 280°
2026-05-04 16:48 -42.41990 163.05042 36400 ft 486 kts 287°
2026-05-04 16:49 -42.39171 162.96752 36389 ft 487 kts 302°
2026-05-04 16:49 -42.35069 162.89479 36391 ft 486 kts 310°
2026-05-04 16:50 -42.26100 162.75880 36374 ft 486 kts 310°
2026-05-04 16:51 -42.19430 162.65591 36367 ft 486 kts 310°
2026-05-04 16:52 -42.10572 162.51857 36382 ft 485 kts 310°
2026-05-04 16:53 -42.03917 162.41589 36370 ft 485 kts 311°
2026-05-04 16:54 -41.95009 162.27906 36361 ft 486 kts 311°
2026-05-04 16:55 -41.81647 162.07498 36352 ft 486 kts 311°
2026-05-04 16:56 -41.70443 161.90493 36351 ft 487 kts 311°
2026-05-04 16:57 -41.63705 161.80314 36353 ft 487 kts 311°
2026-05-04 16:58 -41.54709 161.66777 36352 ft 487 kts 312°
2026-05-04 17:00 -41.41200 161.46563 36339 ft 487 kts 312°
2026-05-04 17:01 -41.29898 161.29758 36339 ft 487 kts 312°
2026-05-04 17:02 -41.20844 161.16361 36338 ft 487 kts 313°
2026-05-04 17:03 -41.14049 161.06349 36324 ft 486 kts 313°
2026-05-04 17:03 -41.07244 160.96353 36327 ft 487 kts 313°
2026-05-04 17:04 -40.98163 160.83067 36321 ft 486 kts 313°
2026-05-04 17:05 -40.89116 160.69891 36330 ft 485 kts 313°
2026-05-04 17:06 -40.82308 160.60008 36308 ft 485 kts 313°
2026-05-04 17:07 -40.76988 160.52313 36309 ft 485 kts 313°
2026-05-04 17:07 -40.71706 160.44691 36303 ft 484 kts 313°
2026-05-04 17:08 -40.64890 160.34887 36300 ft 483 kts 313°
2026-05-04 17:09 -40.60348 160.28370 36304 ft 483 kts 313°
2026-05-04 17:09 -40.55800 160.21856 36310 ft 483 kts 313°
2026-05-04 17:10 -40.44425 160.05629 36292 ft 483 kts 313°
2026-05-04 17:11 -40.39866 159.99147 36289 ft 483 kts 313°
2026-05-04 17:12 -40.33022 159.89448 36287 ft 483 kts 313°
2026-05-04 17:13 -40.21635 159.73377 36286 ft 482 kts 313°
2026-05-04 17:14 -40.12487 159.60529 36270 ft 482 kts 313°
2026-05-04 17:15 -40.05613 159.50916 36272 ft 482 kts 314°
2026-05-04 17:16 -39.96441 159.38176 36263 ft 481 kts 314°
2026-05-04 17:17 -39.87283 159.25464 36254 ft 481 kts 313°
2026-05-04 17:18 -39.78149 159.12837 36729 ft 469 kts 313°
2026-05-04 17:18 -39.73729 159.06745 37629 ft 458 kts 314°
2026-05-04 17:19 -39.69384 159.00767 38102 ft 457 kts 314°
2026-05-04 17:19 -39.64995 158.94741 38252 ft 462 kts 314°
2026-05-04 17:20 -39.60546 158.88645 38250 ft 468 kts 314°
2026-05-04 17:20 -39.53797 158.79418 38240 ft 472 kts 314°
2026-05-04 17:21 -39.44735 158.67079 38237 ft 473 kts 314°
2026-05-04 17:22 -39.40197 158.60918 38238 ft 473 kts 314°
2026-05-04 17:23 -39.31116 158.48624 38232 ft 473 kts 314°
2026-05-04 17:24 -39.24313 158.39448 38226 ft 474 kts 314°
2026-05-04 17:25 -39.15179 158.27169 38227 ft 475 kts 314°
2026-05-04 17:26 -39.06030 158.14917 38221 ft 474 kts 314°
2026-05-04 17:27 -38.94589 157.99671 38214 ft 473 kts 314°
2026-05-04 17:28 -38.87163 157.85843 38215 ft 477 kts 291°
2026-05-04 17:29 -38.85582 157.73224 38199 ft 483 kts 276°
2026-05-04 17:29 -38.85011 157.60300 38197 ft 484 kts 276°
2026-05-04 17:31 -38.83880 157.38802 38180 ft 483 kts 276°
2026-05-04 17:32 -38.82642 157.17319 38183 ft 483 kts 277°
2026-05-04 17:33 -38.81635 157.00216 38161 ft 482 kts 277°
2026-05-04 17:34 -38.80598 156.83068 38156 ft 482 kts 277°
2026-05-04 17:35 -38.79269 156.61672 38144 ft 481 kts 277°
2026-05-04 17:36 -38.78727 156.53137 38138 ft 480 kts 277°
2026-05-04 17:36 -38.78181 156.44611 38133 ft 479 kts 277°
2026-05-04 17:37 -38.77631 156.36122 38130 ft 477 kts 277°
2026-05-04 17:37 -38.77074 156.27646 38123 ft 478 kts 277°
2026-05-04 17:38 -38.76511 156.19158 38123 ft 478 kts 277°
2026-05-04 17:38 -38.75945 156.10708 38116 ft 476 kts 277°
2026-05-04 17:39 -38.75081 155.98026 38110 ft 476 kts 277°
2026-05-04 17:39 -38.74500 155.89575 38111 ft 475 kts 277°
2026-05-04 17:40 -38.73916 155.81192 38103 ft 475 kts 277°
2026-05-04 17:40 -38.73323 155.72762 38098 ft 475 kts 277°
2026-05-04 17:41 -38.72724 155.64326 38094 ft 475 kts 278°
2026-05-04 17:41 -38.72118 155.55899 38090 ft 475 kts 278°
2026-05-04 17:42 -38.71506 155.47457 38081 ft 475 kts 277°
2026-05-04 17:42 -38.70891 155.39046 38084 ft 473 kts 278°
2026-05-04 17:43 -38.70268 155.30645 38073 ft 474 kts 278°
2026-05-04 17:43 -38.69640 155.22238 38071 ft 474 kts 278°
2026-05-04 17:44 -38.69007 155.13845 38066 ft 473 kts 278°
2026-05-04 17:44 -38.68367 155.05456 38070 ft 473 kts 278°
2026-05-04 17:45 -38.67719 154.97045 38058 ft 474 kts 278°
2026-05-04 17:45 -38.67073 154.88712 38056 ft 472 kts 278°
2026-05-04 17:46 -38.66418 154.80358 38053 ft 472 kts 278°
2026-05-04 17:46 -38.65756 154.71995 38043 ft 473 kts 278°
2026-05-04 17:47 -38.65090 154.63638 38046 ft 472 kts 278°
2026-05-04 17:47 -38.64417 154.55296 38043 ft 472 kts 278°
2026-05-04 17:48 -38.63737 154.46942 38032 ft 472 kts 278°
2026-05-04 17:48 -38.63053 154.38595 38026 ft 472 kts 278°
2026-05-04 17:49 -38.62362 154.30247 38032 ft 471 kts 278°
2026-05-04 17:49 -38.61671 154.21962 38020 ft 472 kts 278°
2026-05-04 17:50 -38.60969 154.13629 38020 ft 472 kts 279°
2026-05-04 17:50 -38.60368 154.05273 38012 ft 472 kts 277°
2026-05-04 17:51 -38.59844 153.96933 38006 ft 470 kts 277°
2026-05-04 17:51 -38.59301 153.88598 38007 ft 469 kts 278°
2026-05-04 17:52 -38.58735 153.80285 38002 ft 469 kts 278°
2026-05-04 17:52 -38.58158 153.71989 38005 ft 468 kts 278°
2026-05-04 17:53 -38.57577 153.63718 37993 ft 466 kts 278°
2026-05-04 17:53 -38.56993 153.55479 37987 ft 465 kts 278°
2026-05-04 17:54 -38.56402 153.47234 37983 ft 465 kts 278°
2026-05-04 17:54 -38.55908 153.40401 37984 ft 465 kts 278°
2026-05-04 17:55 -38.55310 153.32185 37977 ft 464 kts 278°
2026-05-04 17:55 -38.54706 153.23981 37971 ft 464 kts 278°
2026-05-04 17:56 -38.54095 153.15768 37968 ft 464 kts 278°
2026-05-04 17:56 -38.53481 153.07570 37960 ft 464 kts 279°
2026-05-04 17:57 -38.52858 152.99349 37961 ft 465 kts 279°
2026-05-04 17:57 -38.52229 152.91122 37961 ft 466 kts 279°
2026-05-04 17:58 -38.51593 152.82890 37953 ft 466 kts 279°
2026-05-04 17:58 -38.50949 152.74628 37953 ft 468 kts 279°
2026-05-04 17:59 -38.50302 152.66390 37949 ft 469 kts 279°
2026-05-04 18:00 -38.49314 152.53948 37946 ft 470 kts 279°
2026-05-04 18:00 -38.48648 152.45667 37941 ft 470 kts 279°
2026-05-04 18:01 -38.47975 152.37363 37939 ft 471 kts 279°
2026-05-04 18:01 -38.47295 152.29052 37936 ft 471 kts 280°
2026-05-04 18:02 -38.46265 152.16602 37933 ft 471 kts 280°
2026-05-04 18:02 -38.45570 152.08289 37930 ft 471 kts 280°
2026-05-04 18:03 -38.44869 151.99984 37933 ft 471 kts 280°
2026-05-04 18:03 -38.44164 151.91686 37938 ft 471 kts 280°
2026-05-04 18:04 -38.43453 151.83391 37919 ft 471 kts 280°
2026-05-04 18:05 -38.42369 151.70894 37931 ft 472 kts 281°
2026-05-04 18:05 -38.41639 151.62571 37945 ft 472 kts 281°
2026-05-04 18:06 -38.40546 151.50197 37912 ft 468 kts 281°
2026-05-04 18:06 -38.39809 151.41959 37921 ft 467 kts 281°
2026-05-04 18:07 -38.39067 151.33727 37915 ft 467 kts 281°
2026-05-04 18:07 -38.38321 151.25518 37910 ft 465 kts 281°
2026-05-04 18:08 -38.37572 151.17334 37920 ft 465 kts 281°
2026-05-04 18:08 -38.36817 151.09156 37914 ft 464 kts 281°
2026-05-04 18:09 -38.35281 150.92794 37906 ft 463 kts 281°
2026-05-04 18:10 -38.34520 150.84671 37908 ft 461 kts 281°
2026-05-04 18:10 -38.33753 150.76572 37908 ft 460 kts 281°
2026-05-04 18:11 -38.32980 150.68487 37920 ft 459 kts 282°
2026-05-04 18:11 -38.32207 150.60478 37921 ft 458 kts 282°
2026-05-04 18:12 -38.31422 150.52421 37911 ft 458 kts 282°
2026-05-04 18:12 -38.30634 150.44373 37925 ft 458 kts 282°
2026-05-04 18:13 -38.29838 150.36314 37911 ft 459 kts 282°
2026-05-04 18:14 -38.28636 150.24237 37919 ft 458 kts 283°
2026-05-04 18:14 -38.27828 150.16188 37938 ft 458 kts 283°
2026-05-04 18:15 -38.26194 150.00084 37925 ft 458 kts 283°
2026-05-04 18:16 -38.25369 149.92040 37918 ft 458 kts 283°
2026-05-04 18:16 -38.24541 149.84010 37924 ft 457 kts 283°
2026-05-04 18:17 -38.23300 149.72075 37922 ft 454 kts 283°
2026-05-04 18:18 -38.22043 149.60136 37934 ft 454 kts 283°
2026-05-04 18:18 -38.21201 149.52188 37931 ft 453 kts 283°
2026-05-04 18:19 -38.19927 149.40276 37931 ft 453 kts 283°
2026-05-04 18:19 -38.19073 149.32354 37923 ft 452 kts 284°
2026-05-04 18:20 -38.18213 149.24427 37929 ft 452 kts 284°
2026-05-04 18:20 -38.17348 149.16506 37921 ft 452 kts 284°
2026-05-04 18:21 -38.16478 149.08589 37932 ft 452 kts 284°
2026-05-04 18:21 -38.15604 149.00676 37926 ft 453 kts 284°
2026-05-04 18:22 -38.14722 148.92758 37948 ft 452 kts 284°
2026-05-04 18:22 -38.13837 148.84849 37946 ft 452 kts 284°
2026-05-04 18:23 -38.12946 148.76944 37931 ft 452 kts 284°
2026-05-04 18:23 -38.12055 148.69088 37932 ft 453 kts 284°
2026-05-04 18:24 -38.11152 148.61171 37934 ft 453 kts 284°
2026-05-04 18:24 -38.10245 148.53265 37933 ft 453 kts 284°
2026-05-04 18:25 -38.09332 148.45354 37943 ft 453 kts 284°
2026-05-04 18:25 -38.08413 148.37448 37933 ft 453 kts 284°
2026-05-04 18:26 -38.07490 148.29542 37930 ft 452 kts 284°
2026-05-04 18:26 -38.06562 148.21648 37927 ft 452 kts 284°
2026-05-04 18:27 -38.05629 148.13756 37922 ft 452 kts 284°
2026-05-04 18:27 -38.04691 148.05871 37922 ft 452 kts 284°
2026-05-04 18:28 -38.03748 147.97992 37919 ft 452 kts 284°
2026-05-04 18:28 -38.02806 147.90166 37923 ft 453 kts 284°
2026-05-04 18:29 -38.01848 147.82262 37922 ft 454 kts 284°
2026-05-04 18:29 -38.00886 147.74356 37919 ft 454 kts 284°
2026-05-04 18:30 -37.99431 147.62485 37920 ft 455 kts 284°
2026-05-04 18:31 -37.98452 147.54562 37910 ft 455 kts 284°
2026-05-04 18:31 -37.97468 147.46633 37909 ft 456 kts 284°
2026-05-04 18:32 -37.96478 147.38700 37908 ft 456 kts 284°
2026-05-04 18:32 -37.95481 147.30763 37909 ft 455 kts 283°
2026-05-04 18:33 -37.94482 147.22852 37905 ft 455 kts 283°
2026-05-04 18:33 -37.93477 147.14939 37902 ft 455 kts 284°
2026-05-04 18:34 -37.92473 147.07070 37911 ft 454 kts 284°
2026-05-04 18:34 -37.91460 146.99182 37905 ft 453 kts 284°
2026-05-04 18:35 -37.90444 146.91313 37899 ft 453 kts 284°
2026-05-04 18:35 -37.89423 146.83451 37922 ft 452 kts 284°
2026-05-04 18:36 -37.88415 146.75693 37471 ft 438 kts 284°
2026-05-04 18:36 -37.87922 146.71907 36848 ft 435 kts 284°
2026-05-04 18:36 -37.87426 146.68129 36146 ft 435 kts 285°
2026-05-04 18:36 -37.86927 146.64354 35420 ft 435 kts 285°
2026-05-04 18:37 -37.86425 146.60571 34729 ft 436 kts 285°
2026-05-04 18:37 -37.85923 146.56792 34034 ft 436 kts 286°
2026-05-04 18:37 -37.85418 146.53006 33199 ft 437 kts 286°
2026-05-04 18:37 -37.84911 146.49202 32336 ft 439 kts 286°
2026-05-04 18:38 -37.84401 146.45393 31474 ft 441 kts 286°
2026-05-04 18:38 -37.83893 146.41601 30581 ft 443 kts 286°
2026-05-04 18:38 -37.83376 146.37752 29641 ft 445 kts 286°
2026-05-04 18:38 -37.82856 146.33894 28731 ft 444 kts 286°
2026-05-04 18:39 -37.82339 146.30051 27994 ft 441 kts 286°
2026-05-04 18:39 -37.81826 146.26236 27282 ft 438 kts 286°
2026-05-04 18:39 -37.81311 146.22406 26637 ft 434 kts 286°
2026-05-04 18:39 -37.80977 146.19924 26208 ft 431 kts 286°
2026-05-04 18:40 -37.80471 146.16194 25489 ft 428 kts 286°
2026-05-04 18:40 -37.80032 146.12478 24859 ft 428 kts 281°
2026-05-04 18:40 -37.80227 146.07477 24045 ft 438 kts 266°
2026-05-04 18:40 -37.80995 146.03740 23456 ft 440 kts 261°
2026-05-04 18:41 -37.81948 146.00080 22789 ft 437 kts 258°
2026-05-04 18:41 -37.82646 145.97641 22342 ft 435 kts 257°
2026-05-04 18:41 -37.83694 145.94120 21679 ft 431 kts 256°
2026-05-04 18:41 -37.84753 145.90598 21030 ft 426 kts 256°
2026-05-04 18:42 -37.85792 145.87105 20333 ft 422 kts 256°
2026-05-04 18:42 -37.86809 145.83642 19734 ft 416 kts 256°
2026-05-04 18:42 -37.87798 145.80231 19086 ft 413 kts 256°
2026-05-04 18:42 -37.88766 145.76847 18478 ft 409 kts 255°
2026-05-04 18:43 -37.89723 145.73488 17923 ft 403 kts 255°
2026-05-04 18:43 -37.90609 145.70148 17276 ft 396 kts 259°
2026-05-04 18:43 -37.91067 145.66797 16943 ft 378 kts 270°
2026-05-04 18:43 -37.90958 145.63574 16662 ft 360 kts 283°
2026-05-04 18:44 -37.90264 145.60650 16414 ft 344 kts 295°
2026-05-04 18:44 -37.89614 145.58846 16266 ft 336 kts 297°
2026-05-04 18:44 -37.88266 145.55374 15938 ft 321 kts 298°
2026-05-04 18:44 -37.87287 145.52894 15718 ft 310 kts 298°
2026-05-04 18:45 -37.86333 145.50492 15498 ft 300 kts 298°
2026-05-04 18:45 -37.85410 145.48169 15275 ft 291 kts 298°
2026-05-04 18:45 -37.84512 145.45915 14995 ft 284 kts 297°
2026-05-04 18:45 -37.83629 145.43699 14620 ft 282 kts 297°
2026-05-04 18:46 -37.82746 145.41486 14187 ft 282 kts 297°
2026-05-04 18:46 -37.81863 145.39270 13667 ft 282 kts 297°
2026-05-04 18:46 -37.80984 145.37057 13180 ft 281 kts 297°
2026-05-04 18:46 -37.80154 145.34823 12735 ft 280 kts 293°
2026-05-04 18:47 -37.79214 145.32689 12304 ft 277 kts 303°
2026-05-04 18:47 -37.78168 145.30663 11911 ft 274 kts 303°
2026-05-04 18:47 -37.77118 145.28661 11454 ft 272 kts 303°
2026-05-04 18:47 -37.76067 145.26649 10810 ft 278 kts 303°
2026-05-04 18:48 -37.75017 145.24601 10134 ft 285 kts 303°
2026-05-04 18:48 -37.73946 145.22468 9381 ft 290 kts 303°
2026-05-04 18:48 -37.72871 145.20297 8626 ft 293 kts 302°
2026-05-04 18:48 -37.71780 145.18065 7884 ft 296 kts 302°
2026-05-04 18:49 -37.70700 145.15845 7164 ft 298 kts 303°
2026-05-04 18:49 -37.69630 145.13629 6452 ft 300 kts 303°
2026-05-04 18:49 -37.68557 145.11385 5716 ft 294 kts 303°
2026-05-04 18:49 -37.67704 145.09099 4979 ft 283 kts 292°
2026-05-04 18:50 -37.67370 145.06681 4240 ft 278 kts 278°
2026-05-04 18:50 -37.67326 145.04270 3508 ft 271 kts 277°
2026-05-04 18:50 -37.67255 145.01959 3045 ft 254 kts 281°
2026-05-04 18:50 -37.67101 144.99846 2740 ft 229 kts 282°
2026-05-04 18:51 -37.66991 144.97967 2457 ft 201 kts 280°
2026-05-04 18:51 -37.66903 144.96309 2238 ft 180 kts 283°
2026-05-04 18:51 -37.66808 144.94794 2016 ft 170 kts 283°
2026-05-04 18:51 -37.66725 144.93362 1768 ft 157 kts 283°
2026-05-04 18:52 -37.66649 144.92044 1550 ft 144 kts 285°
2026-05-04 18:52 -37.66581 144.90850 1369 ft 131 kts 288°
2026-05-04 18:52 -37.66507 144.89698 1203 ft 133 kts 283°
2026-05-04 18:52 -37.66441 144.88523 1025 ft 136 kts 283°
2026-05-04 18:53 -37.66371 144.87310 836 ft 140 kts 281°
2026-05-04 18:53 -37.66302 144.86076 632 ft 145 kts 281°
2026-05-04 18:53 -37.66227 144.84825 391 ft 146 kts 282°
2026-05-04 18:53 -37.66168 144.83644 405 ft 120 kts 278°
2026-05-04 18:54 -37.66124 144.82946 419 ft 37 kts 268°
2026-05-04 18:54 -37.66136 144.82881 412 ft 1 kts 237°
2026-05-04 18:54 -37.66239 144.82742 411 ft 32 kts 224°
2026-05-04 18:54 -37.66421 144.82752 409 ft 30 kts 124°
2026-05-04 18:55 -37.66455 144.83015 413 ft 32 kts 93°
2026-05-04 18:55 -37.66488 144.83604 399 ft 34 kts 95°
2026-05-04 18:55 -37.66501 144.83906 394 ft 37 kts 92°
2026-05-04 18:56 -37.66614 144.84166 381 ft 35 kts 160°
2026-05-04 18:56 -37.66853 144.84209 380 ft 35 kts 169°
2026-05-04 18:56 -37.66991 144.84413 377 ft 34 kts 82°
2026-05-04 18:56 -37.66977 144.84551 368 ft 2 kts 145°
2026-05-04 18:57 -37.67015 144.84564 368 ft 11 kts 170°
2026-05-04 18:57 -37.67049 144.84570 369 ft 0 kts 173°